Torna al catalogo

COSMOS 1950

AttivoMilitareLEO
NORAD 19195·PAYLOAD·🇷🇺 Russia

Lanciato May 30, 1988 da Plesetsk Cosmodrome

Loading…

Prossimi Passaggi (prossime 24 ore)

TLE

AggiornatoSource: Space-Track

Epoca: Sep 14, 2026, 05:38 UTC

1 19195U 88046A   26257.23491236  .00000004  00000-0  15858-3 0  9997
2 19195  73.6036 345.7692 0023023  68.5257 319.8725 12.40924924734658

Traccia COSMOS 1950 in tempo reale con AllMySat

Download on the App Store